SAS125 LOWW-EKCH

Flight info

Callsign SAS125
Flight time 1h 33m
Altitude 40000
Route UNGU2C/29 LANUX DCT VLM DCT HDO DCT POGAB DCT BAKDO DCT KOSEB T298 MONAK MONAK4A
Aircraft A339/H-SADE1E2E3GHIJ3J5M1P2RWXY/LB2D1

Departure

Time 2026-04-25 21:11
Airport Vienna International Airport (LOWW)

Arrival

Time 2026-04-25 22:44
Airport Copenhagen Kastrup Airport (EKCH)
Time Latitude Longitude Altitude Speed Heading
2026-04-25 20:11 48.12210 16.54731 624 ft 0 kts 26°
2026-04-25 20:12 48.12210 16.54730 624 ft 0 kts 26°
2026-04-25 20:22 48.12209 16.54730 624 ft 0 kts 26°
2026-04-25 20:41 48.12207 16.54728 586 ft 2 kts 25°
2026-04-25 20:41 48.12183 16.54714 629 ft 4 kts 19°
2026-04-25 20:41 48.12160 16.54700 629 ft 4 kts 41°
2026-04-25 20:42 48.12147 16.54677 629 ft 4 kts 68°
2026-04-25 20:42 48.12142 16.54649 629 ft 4 kts 114°
2026-04-25 20:42 48.12154 16.54617 629 ft 2 kts 115°
2026-04-25 20:42 48.12154 16.54615 629 ft 0 kts 115°
2026-04-25 20:56 48.12155 16.54615 614 ft 0 kts 115°
2026-04-25 20:58 48.12148 16.54635 629 ft 12 kts 115°
2026-04-25 20:58 48.12108 16.54763 621 ft 17 kts 115°
2026-04-25 20:58 48.12046 16.54952 625 ft 22 kts 116°
2026-04-25 20:58 48.11979 16.55156 621 ft 22 kts 116°
2026-04-25 20:59 48.11940 16.55276 625 ft 1 kts 116°
2026-04-25 20:59 48.11935 16.55291 621 ft 3 kts 116°
2026-04-25 20:59 48.11922 16.55333 621 ft 8 kts 116°
2026-04-25 20:59 48.11888 16.55457 626 ft 18 kts 108°
2026-04-25 21:00 48.11815 16.55578 626 ft 14 kts 172°
2026-04-25 21:00 48.11782 16.55592 621 ft 16 kts 158°
2026-04-25 21:00 48.11586 16.56118 626 ft 33 kts 115°
2026-04-25 21:01 48.11482 16.56438 629 ft 34 kts 115°
2026-04-25 21:01 48.11380 16.56750 625 ft 33 kts 116°
2026-04-25 21:01 48.11302 16.56992 622 ft 26 kts 115°
2026-04-25 21:01 48.11221 16.57240 621 ft 27 kts 116°
2026-04-25 21:02 48.11184 16.57351 628 ft 0 kts 115°
2026-04-25 21:04 48.11182 16.57359 626 ft 4 kts 115°
2026-04-25 21:05 48.11156 16.57439 625 ft 13 kts 115°
2026-04-25 21:05 48.11134 16.57499 618 ft 0 kts 125°
2026-04-25 21:07 48.11125 16.57511 629 ft 5 kts 139°
2026-04-25 21:08 48.11074 16.57515 621 ft 1 kts 193°
2026-04-25 21:09 48.11053 16.57507 622 ft 8 kts 195°
2026-04-25 21:09 48.10981 16.57456 617 ft 12 kts 211°
2026-04-25 21:09 48.10970 16.57360 628 ft 12 kts 287°
2026-04-25 21:10 48.10977 16.57338 629 ft 0 kts 294°
2026-04-25 21:10 48.10981 16.57326 629 ft 8 kts 295°
2026-04-25 21:11 48.11094 16.56984 624 ft 76 kts 296°
2026-04-25 21:11 48.11444 16.55905 627 ft 152 kts 296°
2026-04-25 21:11 48.11998 16.54216 902 ft 193 kts 296°
2026-04-25 21:11 48.12600 16.52451 1749 ft 197 kts 297°
2026-04-25 21:12 48.13286 16.50537 2239 ft 214 kts 299°
2026-04-25 21:12 48.14043 16.48543 2753 ft 228 kts 301°
2026-04-25 21:12 48.14890 16.46429 3102 ft 241 kts 302°
2026-04-25 21:12 48.15178 16.45733 3274 ft 240 kts 303°
2026-04-25 21:13 48.16660 16.42216 4208 ft 234 kts 290°
2026-04-25 21:13 48.16381 16.40093 5027 ft 232 kts 220°
2026-04-25 21:13 48.14745 16.39414 4865 ft 271 kts 169°
2026-04-25 21:13 48.13049 16.40646 4937 ft 276 kts 145°
2026-04-25 21:14 48.11469 16.42410 5005 ft 287 kts 147°
2026-04-25 21:14 48.09701 16.43602 5012 ft 284 kts 171°
2026-04-25 21:14 48.07728 16.44027 5097 ft 289 kts 176°
2026-04-25 21:14 48.05746 16.44461 5003 ft 285 kts 173°
2026-04-25 21:15 48.03764 16.44982 5003 ft 286 kts 173°
2026-04-25 21:15 48.02483 16.45168 4984 ft 283 kts 187°
2026-04-25 21:15 48.00881 16.44549 5026 ft 274 kts 210°
2026-04-25 21:15 47.99397 16.43171 5023 ft 275 kts 221°
2026-04-25 21:16 47.98139 16.41197 5451 ft 264 kts 238°
2026-04-25 21:16 47.97086 16.38860 5903 ft 264 kts 242°
2026-04-25 21:16 47.96450 16.36342 6210 ft 259 kts 265°
2026-04-25 21:16 47.96681 16.33712 6564 ft 254 kts 295°
2026-04-25 21:17 47.97578 16.31463 6874 ft 258 kts 309°
2026-04-25 21:17 47.99017 16.29858 7219 ft 263 kts 333°
2026-04-25 21:17 48.00707 16.28755 8159 ft 260 kts 333°
2026-04-25 21:17 48.02297 16.27509 9007 ft 264 kts 328°
2026-04-25 21:18 48.03935 16.26148 9870 ft 268 kts 330°
2026-04-25 21:18 48.05643 16.24969 10635 ft 273 kts 333°
2026-04-25 21:18 48.07395 16.23750 11150 ft 288 kts 330°
2026-04-25 21:18 48.09219 16.22287 11497 ft 308 kts 329°
2026-04-25 21:19 48.11104 16.20814 11788 ft 329 kts 331°
2026-04-25 21:19 48.13253 16.19286 12080 ft 350 kts 332°
2026-04-25 21:19 48.15455 16.17665 13009 ft 349 kts 330°
2026-04-25 21:19 48.17610 16.15984 13882 ft 352 kts 330°
2026-04-25 21:20 48.19815 16.14311 14655 ft 357 kts 331°
2026-04-25 21:20 48.21304 16.13221 15190 ft 360 kts 331°
2026-04-25 21:20 48.24327 16.10958 16200 ft 365 kts 330°
2026-04-25 21:20 48.26603 16.09203 17008 ft 369 kts 330°
2026-04-25 21:21 48.28915 16.07464 17805 ft 374 kts 331°
2026-04-25 21:21 48.31263 16.05714 18560 ft 378 kts 331°
2026-04-25 21:21 48.33619 16.03916 19254 ft 382 kts 330°
2026-04-25 21:21 48.36004 16.02091 19946 ft 386 kts 330°
2026-04-25 21:22 48.38421 16.00274 20630 ft 390 kts 331°
2026-04-25 21:22 48.40856 15.98432 21293 ft 393 kts 330°
2026-04-25 21:22 48.43304 15.96554 21971 ft 397 kts 331°
2026-04-25 21:22 48.45779 15.94669 22606 ft 401 kts 331°
2026-04-25 21:23 48.48284 15.92774 23265 ft 405 kts 331°
2026-04-25 21:23 48.50813 15.90840 23829 ft 409 kts 331°
2026-04-25 21:23 48.53359 15.88885 24395 ft 412 kts 331°
2026-04-25 21:23 48.55936 15.86922 24954 ft 414 kts 331°
2026-04-25 21:24 48.58485 15.84977 25473 ft 417 kts 331°
2026-04-25 21:24 48.61036 15.83013 26036 ft 420 kts 331°
2026-04-25 21:24 48.63707 15.80960 26607 ft 423 kts 331°
2026-04-25 21:24 48.66348 15.78941 27151 ft 426 kts 331°
2026-04-25 21:25 48.68972 15.76921 27702 ft 429 kts 331°
2026-04-25 21:25 48.71635 15.74862 28247 ft 432 kts 331°
2026-04-25 21:25 48.74331 15.72788 28795 ft 434 kts 331°
2026-04-25 21:25 48.77021 15.70717 29342 ft 437 kts 331°
2026-04-25 21:26 48.79758 15.68596 29875 ft 440 kts 331°
2026-04-25 21:26 48.82420 15.66533 30488 ft 439 kts 331°
2026-04-25 21:26 48.85182 15.64399 31185 ft 435 kts 331°
2026-04-25 21:26 48.87876 15.62309 31829 ft 433 kts 330°
2026-04-25 21:27 48.90591 15.60371 32433 ft 432 kts 334°
2026-04-25 21:27 48.93368 15.58596 33049 ft 431 kts 334°
2026-04-25 21:27 48.96070 15.56819 33719 ft 427 kts 333°
2026-04-25 21:27 48.98784 15.54958 34340 ft 425 kts 333°
2026-04-25 21:28 49.01506 15.53140 34871 ft 424 kts 334°
2026-04-25 21:28 49.04217 15.51387 35389 ft 423 kts 334°
2026-04-25 21:28 49.06914 15.49596 35910 ft 421 kts 333°
2026-04-25 21:28 49.09584 15.47776 36413 ft 420 kts 333°
2026-04-25 21:29 49.12273 15.45984 36916 ft 420 kts 334°
2026-04-25 21:29 49.14954 15.44231 37426 ft 418 kts 334°
2026-04-25 21:29 49.17608 15.42447 37918 ft 417 kts 333°
2026-04-25 21:29 49.20236 15.40656 38376 ft 417 kts 333°
2026-04-25 21:30 49.22892 15.38889 38808 ft 416 kts 334°
2026-04-25 21:30 49.25555 15.37128 39136 ft 417 kts 333°
2026-04-25 21:30 49.28209 15.35328 39434 ft 418 kts 333°
2026-04-25 21:30 49.30002 15.34104 39623 ft 418 kts 333°
2026-04-25 21:31 49.33544 15.31736 40009 ft 420 kts 334°
2026-04-25 21:31 49.36249 15.29924 40013 ft 428 kts 333°
2026-04-25 21:31 49.41690 15.26227 40010 ft 425 kts 333°
2026-04-25 21:32 49.47079 15.22596 40015 ft 424 kts 333°
2026-04-25 21:32 49.52478 15.18916 40017 ft 424 kts 334°
2026-04-25 21:33 49.57879 15.15254 40021 ft 423 kts 333°
2026-04-25 21:33 49.63265 15.11571 40019 ft 423 kts 334°
2026-04-25 21:34 49.68649 15.07894 40013 ft 423 kts 333°
2026-04-25 21:34 49.74156 15.04615 40013 ft 425 kts 338°
2026-04-25 21:35 49.79664 15.01541 40009 ft 424 kts 336°
2026-04-25 21:35 49.85238 14.98433 40017 ft 425 kts 338°
2026-04-25 21:36 49.90805 14.95312 40012 ft 424 kts 336°
2026-04-25 21:36 49.96366 14.92209 40011 ft 424 kts 338°
2026-04-25 21:37 50.00938 14.89644 40015 ft 423 kts 336°
2026-04-25 21:37 50.07415 14.85997 40020 ft 423 kts 338°
2026-04-25 21:38 50.12964 14.82836 40012 ft 424 kts 337°
2026-04-25 21:38 50.18476 14.79747 40016 ft 423 kts 338°
2026-04-25 21:39 50.24007 14.76573 40023 ft 422 kts 337°
2026-04-25 21:39 50.29544 14.73461 40019 ft 422 kts 337°
2026-04-25 21:40 50.35050 14.70282 40014 ft 421 kts 337°
2026-04-25 21:40 50.40575 14.67162 40006 ft 421 kts 337°
2026-04-25 21:41 50.46031 14.63997 40016 ft 420 kts 337°
2026-04-25 21:41 50.51540 14.60866 40017 ft 419 kts 337°
2026-04-25 21:42 50.57019 14.57682 40016 ft 418 kts 337°
2026-04-25 21:42 50.62456 14.54566 40014 ft 417 kts 336°
2026-04-25 21:43 50.67901 14.51395 40000 ft 416 kts 337°
2026-04-25 21:43 50.73338 14.48254 40012 ft 415 kts 336°
2026-04-25 21:44 50.78734 14.45105 40009 ft 416 kts 337°
2026-04-25 21:45 50.86885 14.40341 40013 ft 417 kts 336°
2026-04-25 21:45 50.92337 14.37176 40009 ft 417 kts 337°
2026-04-25 21:46 50.97998 14.34784 40013 ft 422 kts 342°
2026-04-25 21:46 51.03664 14.32378 40017 ft 421 kts 341°
2026-04-25 21:47 51.09327 14.30098 40025 ft 422 kts 342°
2026-04-25 21:47 51.14993 14.27691 40031 ft 421 kts 341°
2026-04-25 21:48 51.20688 14.25379 40032 ft 422 kts 341°
2026-04-25 21:48 51.26350 14.22964 40043 ft 421 kts 341°
2026-04-25 21:49 51.32048 14.20638 40041 ft 421 kts 341°
2026-04-25 21:49 51.37648 14.18238 40038 ft 420 kts 341°
2026-04-25 21:50 51.43305 14.15914 40044 ft 419 kts 341°
2026-04-25 21:50 51.48943 14.13490 40045 ft 418 kts 341°
2026-04-25 21:51 51.54575 14.11161 40044 ft 418 kts 341°
2026-04-25 21:51 51.60210 14.08732 40045 ft 417 kts 341°
2026-04-25 21:52 51.65822 14.06390 40044 ft 416 kts 341°
2026-04-25 21:52 51.71391 14.03987 40042 ft 416 kts 341°
2026-04-25 21:53 51.76984 14.01629 40044 ft 415 kts 341°
2026-04-25 21:53 51.82564 13.99223 40048 ft 414 kts 342°
2026-04-25 21:54 51.88155 13.96852 40044 ft 414 kts 341°
2026-04-25 21:54 51.93732 13.94512 40042 ft 413 kts 342°
2026-04-25 21:55 51.99285 13.92138 40027 ft 413 kts 341°
2026-04-25 21:55 52.04857 13.89793 40045 ft 413 kts 341°
2026-04-25 21:56 52.10424 13.87400 40036 ft 414 kts 342°
2026-04-25 21:56 52.15960 13.85055 40043 ft 414 kts 341°
2026-04-25 21:57 52.21538 13.82652 40046 ft 413 kts 342°
2026-04-25 21:57 52.26163 13.80681 40047 ft 413 kts 341°
2026-04-25 21:58 52.31709 13.78281 40048 ft 413 kts 342°
2026-04-25 21:58 52.37274 13.75889 40055 ft 412 kts 341°
2026-04-25 21:59 52.42810 13.73493 40053 ft 412 kts 342°
2026-04-25 21:59 52.48337 13.71091 40048 ft 411 kts 341°
2026-04-25 22:00 52.56634 13.67493 40049 ft 410 kts 341°
2026-04-25 22:00 52.62147 13.65078 40035 ft 409 kts 342°
2026-04-25 22:01 52.67641 13.62675 40035 ft 408 kts 341°
2026-04-25 22:01 52.72212 13.60670 40035 ft 407 kts 342°
2026-04-25 22:02 52.78578 13.57865 40029 ft 407 kts 341°
2026-04-25 22:02 52.84046 13.55472 40036 ft 406 kts 342°
2026-04-25 22:03 52.89530 13.53025 40043 ft 407 kts 342°
2026-04-25 22:03 52.94964 13.50640 40034 ft 406 kts 342°
2026-04-25 22:04 53.00427 13.48189 40040 ft 406 kts 342°
2026-04-25 22:04 53.05878 13.45779 40030 ft 405 kts 341°
2026-04-25 22:05 53.11325 13.43331 40031 ft 406 kts 342°
2026-04-25 22:05 53.16783 13.40894 40026 ft 405 kts 341°
2026-04-25 22:06 53.22242 13.38442 40032 ft 406 kts 342°
2026-04-25 22:06 53.27690 13.35982 40029 ft 405 kts 341°
2026-04-25 22:07 53.32227 13.33940 40033 ft 406 kts 342°
2026-04-25 22:07 53.38582 13.31054 40027 ft 408 kts 341°
2026-04-25 22:08 53.44061 13.28583 40028 ft 408 kts 341°
2026-04-25 22:08 53.49548 13.26071 40028 ft 408 kts 342°
2026-04-25 22:09 53.55024 13.23584 40032 ft 408 kts 341°
2026-04-25 22:09 53.60480 13.21079 40034 ft 408 kts 342°
2026-04-25 22:10 53.65955 13.18570 40029 ft 409 kts 341°
2026-04-25 22:10 53.71465 13.16039 40028 ft 408 kts 342°
2026-04-25 22:11 53.76961 13.13494 40027 ft 409 kts 341°
2026-04-25 22:11 53.82408 13.10989 40029 ft 408 kts 342°
2026-04-25 22:12 53.87912 13.08418 40032 ft 409 kts 342°
2026-04-25 22:12 53.92474 13.06316 40024 ft 409 kts 342°
2026-04-25 22:13 53.98860 13.03320 40026 ft 410 kts 342°
2026-04-25 22:13 54.04394 13.00748 40030 ft 410 kts 341°
2026-04-25 22:14 54.09857 12.98176 40031 ft 410 kts 342°
2026-04-25 22:14 54.15286 12.95364 40030 ft 408 kts 339°
2026-04-25 22:15 54.20702 12.92332 40029 ft 409 kts 340°
2026-04-25 22:16 54.28810 12.87753 40033 ft 409 kts 339°
2026-04-25 22:16 54.34248 12.84758 40037 ft 409 kts 339°
2026-04-25 22:17 54.39600 12.81680 40024 ft 410 kts 340°
2026-04-25 22:17 54.45055 12.78638 40038 ft 409 kts 339°
2026-04-25 22:18 54.50442 12.75544 40041 ft 410 kts 340°
2026-04-25 22:18 54.55873 12.72476 40035 ft 410 kts 339°
2026-04-25 22:19 54.61262 12.69386 40030 ft 412 kts 340°
2026-04-25 22:19 54.66710 12.66271 40035 ft 411 kts 339°
2026-04-25 22:20 54.72147 12.63155 40038 ft 413 kts 339°
2026-04-25 22:20 54.77504 12.59579 40048 ft 410 kts 327°
2026-04-25 22:21 54.81841 12.53178 40031 ft 412 kts 315°
2026-04-25 22:21 54.85946 12.46258 40028 ft 411 kts 317°
2026-04-25 22:22 54.89979 12.39194 40032 ft 412 kts 315°
2026-04-25 22:22 54.94085 12.32236 40033 ft 412 kts 316°
2026-04-25 22:23 54.98666 12.26673 39535 ft 407 kts 343°
2026-04-25 22:23 55.01501 12.26311 38874 ft 419 kts
2026-04-25 22:23 55.04313 12.27973 38201 ft 434 kts 24°
2026-04-25 22:23 55.06708 12.31356 37455 ft 450 kts 38°
2026-04-25 22:24 55.08897 12.35216 36562 ft 445 kts 31°
2026-04-25 22:24 55.11526 12.37744 35811 ft 420 kts
2026-04-25 22:24 55.14343 12.38175 35169 ft 399 kts 348°
2026-04-25 22:24 55.16928 12.36690 34482 ft 390 kts 329°
2026-04-25 22:25 55.19005 12.33673 33705 ft 391 kts 314°
2026-04-25 22:25 55.20685 12.29871 32725 ft 397 kts 306°
2026-04-25 22:25 55.21918 12.25499 31659 ft 409 kts 296°
2026-04-25 22:25 55.22657 12.20603 30584 ft 423 kts 286°
2026-04-25 22:26 55.22815 12.15393 29361 ft 441 kts 275°
2026-04-25 22:26 55.22330 12.10062 28120 ft 458 kts 264°
2026-04-25 22:26 55.21112 12.04753 27125 ft 475 kts 250°
2026-04-25 22:26 55.19248 12.00031 27035 ft 470 kts 238°
2026-04-25 22:27 55.16868 11.96210 27025 ft 466 kts 225°
2026-04-25 22:27 55.14192 11.93094 27029 ft 451 kts 222°
2026-04-25 22:27 55.11594 11.90234 26908 ft 442 kts 216°
2026-04-25 22:27 55.08628 11.88523 26595 ft 453 kts 195°
2026-04-25 22:28 55.05486 11.88096 26061 ft 460 kts 182°
2026-04-25 22:28 55.02304 11.89277 25451 ft 472 kts 157°
2026-04-25 22:28 54.99616 11.92341 25437 ft 457 kts 134°
2026-04-25 22:28 54.97782 11.96650 25448 ft 433 kts 109°
2026-04-25 22:29 54.96928 12.01471 25449 ft 407 kts 92°
2026-04-25 22:29 54.96558 12.06266 25029 ft 403 kts 87°
2026-04-25 22:29 54.96307 12.11196 24672 ft 402 kts 86°
2026-04-25 22:30 54.95656 12.20786 24006 ft 412 kts 103°
2026-04-25 22:30 54.94330 12.25248 23711 ft 420 kts 120°
2026-04-25 22:30 54.92616 12.29373 23300 ft 419 kts 121°
2026-04-25 22:30 54.91681 12.32277 22975 ft 410 kts 104°
2026-04-25 22:31 54.91346 12.38480 22554 ft 370 kts 66°
2026-04-25 22:31 54.92340 12.42381 22140 ft 342 kts 44°
2026-04-25 22:31 54.93778 12.45505 21733 ft 333 kts 37°
2026-04-25 22:31 54.95319 12.48494 21393 ft 330 kts 36°
2026-04-25 22:32 54.96992 12.51028 20984 ft 307 kts 17°
2026-04-25 22:32 54.98932 12.51998 20701 ft 284 kts 359°
2026-04-25 22:32 55.00884 12.52317 20270 ft 285 kts 359°
2026-04-25 22:32 55.02876 12.52930 19936 ft 288 kts
2026-04-25 22:33 55.04796 12.54040 19583 ft 293 kts 12°
2026-04-25 22:33 55.06684 12.55329 19246 ft 290 kts 10°
2026-04-25 22:33 55.08564 12.56386 18923 ft 285 kts
2026-04-25 22:33 55.10470 12.57388 18551 ft 286 kts
2026-04-25 22:34 55.12351 12.58552 18198 ft 286 kts 11°
2026-04-25 22:34 55.14221 12.59722 17827 ft 283 kts
2026-04-25 22:34 55.16086 12.60756 17440 ft 281 kts
2026-04-25 22:34 55.17942 12.61809 17025 ft 281 kts 10°
2026-04-25 22:35 55.19789 12.62950 16631 ft 280 kts 10°
2026-04-25 22:35 55.21630 12.64048 16265 ft 278 kts
2026-04-25 22:35 55.23453 12.65150 15867 ft 280 kts 15°
2026-04-25 22:35 55.25129 12.66843 15447 ft 286 kts 22°
2026-04-25 22:36 55.26850 12.68614 15042 ft 282 kts 19°
2026-04-25 22:36 55.28581 12.70113 14699 ft 278 kts 17°
2026-04-25 22:36 55.30337 12.71736 14287 ft 280 kts 21°
2026-04-25 22:36 55.32079 12.73072 13847 ft 268 kts
2026-04-25 22:37 55.33863 12.73309 13418 ft 261 kts 353°
2026-04-25 22:37 55.35607 12.72672 12904 ft 253 kts 333°
2026-04-25 22:37 55.37083 12.71106 12029 ft 248 kts 322°
2026-04-25 22:37 55.38324 12.68971 11065 ft 257 kts 308°
2026-04-25 22:38 55.39195 12.66188 10028 ft 259 kts 296°
2026-04-25 22:38 55.39961 12.63314 8737 ft 263 kts 302°
2026-04-25 22:38 55.40914 12.60580 7564 ft 263 kts 304°
2026-04-25 22:38 55.41826 12.57768 6408 ft 265 kts 298°
2026-04-25 22:39 55.42583 12.54802 5247 ft 266 kts 296°
2026-04-25 22:39 55.43392 12.51975 4818 ft 241 kts 303°
2026-04-25 22:39 55.44216 12.49594 4428 ft 230 kts 303°
2026-04-25 22:39 55.45113 12.47078 3233 ft 257 kts 313°
2026-04-25 22:40 55.46518 12.45287 2699 ft 251 kts 337°
2026-04-25 22:40 55.48278 12.45155 2417 ft 245 kts
2026-04-25 22:40 55.49338 12.45638 2091 ft 263 kts 14°
2026-04-25 22:41 55.50144 12.46264 1616 ft 273 kts 28°
2026-04-25 22:41 55.51509 12.48636 1196 ft 267 kts 47°
2026-04-25 22:41 55.52548 12.50686 1346 ft 256 kts 39°
2026-04-25 22:42 55.53912 12.52524 1440 ft 208 kts 32°
2026-04-25 22:42 55.54925 12.53908 1316 ft 163 kts 33°
2026-04-25 22:42 55.55734 12.55073 1050 ft 144 kts 33°
2026-04-25 22:43 55.56491 12.56192 710 ft 137 kts 37°
2026-04-25 22:43 55.56946 12.56929 615 ft 132 kts 37°
2026-04-25 22:43 55.57685 12.58000 475 ft 139 kts 34°
2026-04-25 22:43 55.58408 12.59110 270 ft 139 kts 34°
2026-04-25 22:44 55.59125 12.60212 108 ft 132 kts 35°
2026-04-25 22:44 55.59771 12.61192 31 ft 104 kts 42°
2026-04-25 22:44 55.60184 12.61839 27 ft 66 kts 42°
2026-04-25 22:44 55.60456 12.62259 28 ft 47 kts 41°
2026-04-25 22:45 55.60648 12.62662 28 ft 41 kts 65°
2026-04-25 22:45 55.60711 12.62973 26 ft 0 kts 71°
2026-04-25 22:47 55.60722 12.63035 26 ft 11 kts 72°
2026-04-25 22:47 55.60757 12.63218 27 ft 19 kts 71°
2026-04-25 22:47 55.60800 12.63440 27 ft 19 kts 69°
2026-04-25 22:48 55.60874 12.63638 27 ft 20 kts 39°
2026-04-25 22:48 55.60991 12.63778 27 ft 21 kts 33°
2026-04-25 22:48 55.61111 12.63916 27 ft 19 kts 32°
2026-04-25 22:48 55.61225 12.64042 27 ft 20 kts 31°
2026-04-25 22:49 55.61341 12.64178 27 ft 20 kts 34°
2026-04-25 22:49 55.61459 12.64315 27 ft 21 kts 33°
2026-04-25 22:49 55.61580 12.64455 26 ft 22 kts 33°
2026-04-25 22:49 55.61708 12.64601 27 ft 22 kts 33°
2026-04-25 22:50 55.61839 12.64751 27 ft 23 kts 32°
2026-04-25 22:50 55.61931 12.64856 26 ft 1 kts 33°
2026-04-25 22:51 55.61938 12.64865 26 ft 5 kts 33°
2026-04-25 22:51 55.61995 12.64928 27 ft 14 kts 32°
2026-04-25 22:51 55.62066 12.65011 27 ft 14 kts 34°
2026-04-25 22:51 55.62123 12.65079 27 ft 0 kts 34°
2026-04-25 22:52 55.62137 12.65095 27 ft 4 kts 34°
2026-04-25 22:52 55.62158 12.65113 27 ft 2 kts 15°
2026-04-25 22:52 55.62168 12.65122 27 ft 3 kts 24°
2026-04-25 22:52 55.62179 12.65130 27 ft 0 kts 18°
2026-04-25 22:53 55.62187 12.65117 27 ft 1 kts 321°
2026-04-25 22:53 55.62204 12.65049 27 ft 15 kts 295°
2026-04-25 22:53 55.62246 12.64920 27 ft 9 kts 303°
2026-04-25 22:53 55.62281 12.64826 27 ft 11 kts 303°
2026-04-25 22:54 55.62325 12.64708 27 ft 11 kts 303°
2026-04-25 22:54 55.62366 12.64597 27 ft 12 kts 302°
2026-04-25 22:54 55.62414 12.64470 27 ft 13 kts 306°
2026-04-25 22:54 55.62472 12.64336 27 ft 14 kts 308°
2026-04-25 22:55 55.62521 12.64220 27 ft 1 kts 313°
2026-04-25 22:55 55.62525 12.64218 27 ft 0 kts 329°
2026-04-25 22:55 55.62529 12.64215 27 ft 3 kts 333°
2026-04-25 22:56 55.62557 12.64217 27 ft 6 kts
2026-04-25 22:56 55.62582 12.64253 27 ft 5 kts 54°
2026-04-25 22:56 55.62606 12.64334 27 ft 9 kts 65°
2026-04-25 22:56 55.62615 12.64373 27 ft 2 kts 66°
2026-04-25 22:57 55.62624 12.64407 27 ft 2 kts 66°
2026-04-25 22:57 55.62626 12.64415 27 ft 0 kts 66°